| time (UTC) | temp C | wind direction | speed KPH | gust KPH | rain 1hr cm | rain 24hr cm | rain mn cm | humidity % | barometer mb |
| 20260906122707 | 22 | 43 | 3.2 | 6.4 | 0.00 | 0.00 | 0.00 | 95 | 1015.8 |
| 20260906122203 | 22 | 101 | 4.8 | 8.0 | 0.00 | 0.00 | 0.00 | 96 | 1015.8 |
| 20260906121659 | 22 | 25 | 3.2 | 3.2 | 0.00 | 0.00 | 0.00 | 96 | 1015.7 |
| 20260906121155 | 22 | 32 | 1.6 | 3.2 | 0.00 | 0.00 | 0.00 | 96 | 1015.9 |
| 20260906120651 | 22 | 129 | 0.0 | 3.2 | 0.00 | 0.00 | 0.00 | 96 | 1015.6 |
| 20260906120148 | 22 | 27 | 3.2 | 4.8 | 0.00 | 0.00 | 0.00 | 96 | 1015.5 |
| 20260906115647 | 21 | 18 | 1.6 | 4.8 | 0.00 | 0.00 | 0.00 | 96 | 1015.4 |
| 20260906115143 | 21 | 20 | 3.2 | 6.4 | 0.00 | 0.00 | 0.00 | 96 | 1015.4 |
| 20260906114642 | 21 | 32 | 3.2 | 4.8 | 0.00 | 0.00 | 0.00 | 96 | 1015.6 |
| 20260906114137 | 21 | 65 | 3.2 | 6.4 | 0.00 | 0.00 | 0.00 | 96 | 1015.4 |
| 20260906113637 | 21 | 28 | 0.0 | 1.6 | 0.00 | 0.00 | 0.00 | 96 | 1015.3 |
| 20260906113132 | 21 | 34 | 3.2 | 3.2 | 0.00 | 0.00 | 0.00 | 96 | 1015.4 |
| 20260906112631 | 21 | 62 | 3.2 | 3.2 | 0.00 | 0.00 | 0.00 | 96 | 1015.3 |
| 20260906112129 | 21 | 11 | 3.2 | 6.4 | 0.00 | 0.00 | 0.00 | 96 | 1015.3 |
| 20260906111628 | 21 | 348 | 1.6 | 4.8 | 0.00 | 0.00 | 0.00 | 96 | 1015.0 |
| 20260906111123 | 21 | 40 | 3.2 | 3.2 | 0.00 | 0.00 | 0.00 | 96 | 1015.3 |
| 20260906110618 | 21 | 42 | 3.2 | 4.8 | 0.00 | 0.00 | 0.00 | 96 | 1015.0 |
| 20260906110118 | 21 | 68 | 3.2 | 6.4 | 0.00 | 0.00 | 0.00 | 96 | 1014.9 |
| 20260906105612 | 21 | 55 | 0.0 | 3.2 | 0.00 | 0.00 | 0.00 | 96 | 1015.0 |
| 20260906105108 | 21 | 69 | 1.6 | 4.8 | 0.00 | 0.00 | 0.00 | 96 | 1015.0 |
| 20260906104607 | 21 | 51 | 4.8 | 6.4 | 0.00 | 0.00 | 0.00 | 96 | 1014.7 |
| 20260906104101 | 21 | 55 | 0.0 | 3.2 | 0.00 | 0.00 | 0.00 | 96 | 1014.9 |
| 20260906103600 | 21 | 24 | 3.2 | 4.8 | 0.00 | 0.00 | 0.00 | 96 | 1014.8 |
| 20260906103055 | 21 | 57 | 4.8 | 4.8 | 0.00 | 0.00 | 0.00 | 96 | 1014.9 |
| 20260906102549 | 21 | 20 | 3.2 | 4.8 | 0.00 | 0.00 | 0.00 | 96 | 1014.9 |
| 20260906102044 | 21 | 50 | 1.6 | 4.8 | 0.00 | 0.00 | 0.00 | 95 | 1014.8 |
| 20260906101539 | 21 | 49 | 3.2 | 4.8 | 0.00 | 0.00 | 0.00 | 95 | 1014.8 |
| 20260906101033 | 21 | 52 | 3.2 | 4.8 | 0.00 | 0.00 | 0.00 | 95 | 1014.6 |
| 20260906100529 | 21 | 27 | 0.0 | 4.8 | 0.00 | 0.00 | 0.00 | 95 | 1014.6 |
| 20260906100030 | 21 | 73 | 6.4 | 6.4 | 0.00 | 0.00 | 0.00 | 95 | 1014.7 |
| 20260906095524 | 21 | 51 | 4.8 | 8.0 | 0.00 | 0.00 | 0.00 | 94 | 1014.8 |
| 20260906095020 | 21 | 82 | 4.8 | 8.0 | 0.00 | 0.00 | 0.00 | 94 | 1014.8 |
| 20260906094519 | 21 | 55 | 3.2 | 3.2 | 0.00 | 0.00 | 0.00 | 94 | 1014.7 |
| 20260906094015 | 21 | 23 | 3.2 | 6.4 | 0.00 | 0.00 | 0.00 | 94 | 1014.5 |
| 20260906093511 | 21 | 60 | 6.4 | 8.0 | 0.00 | 0.00 | 0.00 | 93 | 1014.5 |
| 20260906093010 | 21 | 69 | 4.8 | 6.4 | 0.00 | 0.00 | 0.00 | 93 | 1014.3 |
| 20260906092505 | 21 | 32 | 1.6 | 3.2 | 0.00 | 0.00 | 0.00 | 93 | 1014.4 |
| 20260906092001 | 21 | 67 | 4.8 | 4.8 | 0.00 | 0.00 | 0.00 | 92 | 1014.3 |
| 20260906091456 | 21 | 40 | 3.2 | 3.2 | 0.00 | 0.00 | 0.00 | 93 | 1014.3 |
| 20260906090953 | 21 | 39 | 3.2 | 6.4 | 0.00 | 0.00 | 0.00 | 92 | 1014.2 |
| 20260906090448 | 21 | 34 | 3.2 | 6.4 | 0.00 | 0.00 | 0.00 | 92 | 1014.4 |
| 20260906085947 | 21 | 29 | 3.2 | 3.2 | 0.00 | 0.00 | 0.00 | 92 | 1014.2 |
| 20260906085446 | 21 | 87 | 6.4 | 6.4 | 0.00 | 0.00 | 0.00 | 92 | 1014.4 |
| 20260906084946 | 21 | 53 | 3.2 | 8.0 | 0.00 | 0.00 | 0.00 | 92 | 1014.2 |
| 20260906084441 | 21 | 53 | 4.8 | 6.4 | 0.00 | 0.00 | 0.00 | 91 | 1014.4 |
| 20260906083940 | 22 | 39 | 3.2 | 8.0 | 0.00 | 0.00 | 0.00 | 91 | 1014.5 |
| 20260906083436 | 22 | 37 | 3.2 | 4.8 | 0.00 | 0.00 | 0.00 | 91 | 1014.4 |
| 20260906082934 | 22 | 27 | 4.8 | 6.4 | 0.00 | 0.00 | 0.00 | 91 | 1014.5 |
| 20260906082430 | 22 | 96 | 3.2 | 6.4 | 0.00 | 0.00 | 0.00 | 91 | 1014.4 |
| 20260906081926 | 22 | 44 | 3.2 | 6.4 | 0.00 | 0.00 | 0.00 | 91 | 1014.4 |
| 20260906081421 | 22 | 67 | 4.8 | 4.8 | 0.00 | 0.00 | 0.00 | 91 | 1014.5 |
| 20260906080917 | 22 | 83 | 4.8 | 8.0 | 0.00 | 0.00 | 0.00 | 90 | 1014.5 |
| 20260906080414 | 22 | 48 | 3.2 | 6.4 | 0.00 | 0.00 | 0.00 | 90 | 1014.5 |
| 20260906075913 | 22 | 35 | 3.2 | 8.0 | 0.00 | 0.00 | 0.00 | 90 | 1014.5 |
| 20260906075408 | 22 | 63 | 8.0 | 8.0 | 0.00 | 0.00 | 0.00 | 90 | 1014.3 |
| 20260906074903 | 22 | 24 | 3.2 | 6.4 | 0.00 | 0.00 | 0.00 | 90 | 1014.4 |
| 20260906074402 | 22 | 21 | 3.2 | 4.8 | 0.00 | 0.00 | 0.00 | 90 | 1014.4 |
| 20260906073901 | 22 | 30 | 3.2 | 6.4 | 0.00 | 0.00 | 0.00 | 89 | 1014.7 |
| 20260906073356 | 22 | 44 | 3.2 | 6.4 | 0.00 | 0.00 | 0.00 | 89 | 1014.5 |
| 20260906072853 | 22 | 58 | 8.0 | 11.3 | 0.00 | 0.00 | 0.00 | 89 | 1014.4 |
| 20260906072348 | 22 | 44 | 3.2 | 9.7 | 0.00 | 0.00 | 0.00 | 88 | 1014.4 |
| 20260906071845 | 22 | 55 | 1.6 | 4.8 | 0.00 | 0.00 | 0.00 | 88 | 1014.4 |
| 20260906071345 | 22 | 41 | 3.2 | 6.4 | 0.00 | 0.00 | 0.00 | 88 | 1014.3 |
| 20260906070841 | 23 | 15 | 0.0 | 6.4 | 0.00 | 0.00 | 0.00 | 88 | 1014.4 |
| 20260906070337 | 23 | 48 | 3.2 | 3.2 | 0.00 | 0.00 | 0.00 | 88 | 1014.5 |
| 20260906065832 | 23 | 18 | 1.6 | 6.4 | 0.00 | 0.00 | 0.00 | 88 | 1014.4 |
| 20260906065326 | 23 | 60 | 3.2 | 6.4 | 0.00 | 0.00 | 0.00 | 88 | 1014.5 |
| 20260906064822 | 23 | 19 | 0.0 | 6.4 | 0.00 | 0.00 | 0.00 | 87 | 1014.5 |
| 20260906064319 | 23 | 42 | 6.4 | 8.0 | 0.00 | 0.00 | 0.00 | 87 | 1014.4 |
| 20260906063818 | 23 | 75 | 3.2 | 3.2 | 0.00 | 0.00 | 0.00 | 87 | 1014.3 |
| 20260906063314 | 23 | 19 | 1.6 | 6.4 | 0.00 | 0.00 | 0.00 | 87 | 1014.5 |
| 20260906062809 | 23 | 51 | 0.0 | 6.4 | 0.00 | 0.00 | 0.00 | 87 | 1014.4 |
| 20260906062308 | 23 | 51 | 0.0 | 4.8 | 0.00 | 0.00 | 0.00 | 87 | 1014.2 |
| 20260906061804 | 23 | 36 | 3.2 | 4.8 | 0.00 | 0.00 | 0.00 | 87 | 1014.3 |
| 20260906061300 | 24 | 11 | 1.6 | 4.8 | 0.00 | 0.00 | 0.00 | 86 | 1014.3 |
| 20260906060755 | 24 | 33 | 3.2 | 4.8 | 0.00 | 0.00 | 0.00 | 86 | 1014.3 |
| 20260906060252 | 24 | 47 | 3.2 | 4.8 | 0.00 | 0.00 | 0.00 | 86 | 1014.3 |
| 20260906055748 | 24 | 58 | 3.2 | 4.8 | 0.00 | 0.00 | 0.00 | 85 | 1014.4 |
| 20260906055243 | 24 | 31 | 4.8 | 4.8 | 0.00 | 0.00 | 0.00 | 85 | 1014.3 |
| 20260906054738 | 24 | 43 | 3.2 | 4.8 | 0.00 | 0.00 | 0.00 | 85 | 1014.2 |
| 20260906054233 | 25 | 45 | 0.0 | 4.8 | 0.00 | 0.00 | 0.00 | 85 | 1014.2 |
| 20260906053730 | 25 | 25 | 3.2 | 4.8 | 0.00 | 0.00 | 0.00 | 85 | 1014.3 |
| 20260906053225 | 25 | 21 | 1.6 | 3.2 | 0.00 | 0.00 | 0.00 | 85 | 1014.2 |
| 20260906052720 | 25 | 45 | 4.8 | 4.8 | 0.00 | 0.00 | 0.00 | 84 | 1014.1 |
| 20260906052217 | 25 | 24 | 3.2 | 4.8 | 0.00 | 0.00 | 0.00 | 84 | 1013.9 |
| 20260906051714 | 25 | 30 | 3.2 | 4.8 | 0.00 | 0.00 | 0.00 | 84 | 1014.1 |
| 20260906051213 | 25 | 36 | 3.2 | 4.8 | 0.00 | 0.00 | 0.00 | 83 | 1014.0 |
| 20260906050708 | 25 | 47 | 4.8 | 4.8 | 0.00 | 0.00 | 0.00 | 83 | 1014.3 |
| 20260906050203 | 25 | 51 | 4.8 | 4.8 | 0.00 | 0.00 | 0.00 | 83 | 1014.2 |
| 20260906045701 | 25 | 32 | 4.8 | 6.4 | 0.00 | 0.00 | 0.00 | 83 | 1014.1 |
| 20260906045157 | 25 | 42 | 3.2 | 4.8 | 0.00 | 0.00 | 0.00 | 82 | 1014.2 |
| 20260906044653 | 25 | 84 | 0.0 | 4.8 | 0.00 | 0.00 | 0.00 | 82 | 1014.0 |
| 20260906044148 | 26 | 22 | 3.2 | 4.8 | 0.00 | 0.00 | 0.00 | 82 | 1014.3 |
| 20260906043644 | 26 | 45 | 4.8 | 6.4 | 0.00 | 0.00 | 0.00 | 81 | 1014.1 |
| 20260906043139 | 26 | 44 | 3.2 | 4.8 | 0.00 | 0.00 | 0.00 | 81 | 1014.1 |
| 20260906042639 | 26 | 33 | 4.8 | 6.4 | 0.00 | 0.00 | 0.00 | 81 | 1013.9 |
| 20260906042133 | 26 | 32 | 3.2 | 6.4 | 0.00 | 0.00 | 0.00 | 81 | 1013.9 |
| 20260906041630 | 26 | 43 | 3.2 | 6.4 | 0.00 | 0.00 | 0.00 | 81 | 1013.9 |
| 20260906041129 | 26 | 12 | 3.2 | 6.4 | 0.00 | 0.00 | 0.00 | 80 | 1014.0 |
| 20260906040625 | 26 | 43 | 4.8 | 4.8 | 0.00 | 0.00 | 0.00 | 80 | 1013.9 |
| 20260906040120 | 27 | 66 | 6.4 | 6.4 | 0.00 | 0.00 | 0.00 | 79 | 1013.7 |
| 20260906035615 | 27 | 56 | 4.8 | 9.7 | 0.00 | 0.00 | 0.00 | 79 | 1013.7 |
| 20260906035111 | 27 | 3 | 0.0 | 6.4 | 0.00 | 0.00 | 0.00 | 79 | 1013.5 |
| 20260906034611 | 27 | 38 | 6.4 | 6.4 | 0.00 | 0.00 | 0.00 | 79 | 1013.5 |
| 20260906034106 | 27 | 20 | 4.8 | 6.4 | 0.00 | 0.00 | 0.00 | 79 | 1013.5 |
| 20260906033601 | 27 | 355 | 3.2 | 3.2 | 0.00 | 0.00 | 0.00 | 79 | 1013.5 |
| 20260906033056 | 27 | 27 | 3.2 | 6.4 | 0.00 | 0.00 | 0.00 | 79 | 1013.4 |
| 20260906032554 | 28 | 58 | 9.7 | 11.3 | 0.00 | 0.00 | 0.00 | 78 | 1013.3 |
| 20260906032053 | 28 | 6 | 3.2 | 4.8 | 0.00 | 0.00 | 0.00 | 79 | 1013.2 |
| 20260906031549 | 28 | 67 | 6.4 | 6.4 | 0.00 | 0.00 | 0.00 | 79 | 1013.2 |
| 20260906031044 | 28 | 13 | 0.0 | 3.2 | 0.00 | 0.00 | 0.00 | 79 | 1013.2 |
| 20260906030543 | 28 | 318 | 1.6 | 3.2 | 0.00 | 0.00 | 0.00 | 78 | 1013.2 |
| 20260906030044 | 28 | 25 | 3.2 | 3.2 | 0.00 | 0.00 | 0.00 | 78 | 1013.1 |
| 20260906025543 | 28 | 352 | 1.6 | 4.8 | 0.00 | 0.00 | 0.00 | 77 | 1012.9 |
| 20260906025042 | 28 | 351 | 1.6 | 3.2 | 0.00 | 0.00 | 0.00 | 77 | 1012.8 |
| 20260906024538 | 28 | 46 | 4.8 | 6.4 | 0.00 | 0.00 | 0.00 | 76 | 1012.7 |
| 20260906024037 | 28 | 2 | 1.6 | 4.8 | 0.00 | 0.00 | 0.00 | 77 | 1012.7 |
| 20260906023533 | 28 | 357 | 1.6 | 3.2 | 0.00 | 0.00 | 0.00 | 77 | 1012.6 |
| 20260906023028 | 28 | 15 | 0.0 | 3.2 | 0.00 | 0.00 | 0.00 | 77 | 1012.7 |
| 20260906022523 | 28 | 23 | 0.0 | 3.2 | 0.00 | 0.00 | 0.00 | 78 | 1012.5 |
| 20260906022019 | 28 | 341 | 1.6 | 3.2 | 0.00 | 0.00 | 0.00 | 78 | 1012.6 |
| 20260906021515 | 28 | 1 | 0.0 | 1.6 | 0.00 | 0.00 | 0.00 | 77 | 1012.5 |
| 20260906021008 | 28 | 6 | 0.0 | 3.2 | 0.00 | 0.00 | 0.00 | 76 | 1012.5 |
| 20260906020507 | 28 | 321 | 1.6 | 3.2 | 0.00 | 0.00 | 0.00 | 76 | 1012.5 |
| 20260906020007 | 28 | 339 | 1.6 | 1.6 | 0.00 | 0.00 | 0.00 | 76 | 1012.4 |
| 20260906015507 | 28 | 304 | 0.0 | 1.6 | 0.00 | 0.00 | 0.00 | 75 | 1012.1 |
| 20260906015006 | 28 | 329 | 1.6 | 1.6 | 0.00 | 0.00 | 0.00 | 75 | 1012.2 |
| 20260906014501 | 29 | 341 | 1.6 | 1.6 | 0.00 | 0.00 | 0.00 | 74 | 1012.2 |
| 20260906013957 | 29 | 339 | 1.6 | 1.6 | 0.00 | 0.00 | 0.00 | 74 | 1012.2 |
| 20260906013452 | 29 | 343 | 0.0 | 1.6 | 0.00 | 0.00 | 0.00 | 73 | 1012.1 |
| 20260906012948 | 29 | 333 | 0.0 | 1.6 | 0.00 | 0.00 | 0.00 | 73 | 1012.1 |
| 20260906012448 | 30 | 322 | 0.0 | 1.6 | 0.00 | 0.00 | 0.00 | 72 | 1011.9 |
| 20260906011948 | 30 | 333 | 0.0 | 1.6 | 0.00 | 0.00 | 0.00 | 72 | 1011.9 |
| 20260906011443 | 30 | 326 | 0.0 | 1.6 | 0.00 | 0.00 | 0.00 | 71 | 1011.8 |
| 20260906010938 | 30 | 333 | 0.0 | 1.6 | 0.00 | 0.00 | 0.00 | 70 | 1011.8 |
| 20260906010434 | 30 | 324 | 1.6 | 1.6 | 0.00 | 0.00 | 0.00 | 70 | 1011.7 |
| 20260906005930 | 30 | 304 | 0.0 | 1.6 | 0.00 | 0.00 | 0.00 | 69 | 1011.7 |
| 20260906005429 | 30 | 15 | 0.0 | 1.6 | 0.00 | 0.00 | 0.00 | 68 | 1011.7 |
| 20260906004928 | 30 | 37 | 0.0 | 1.6 | 0.00 | 0.00 | 0.00 | 68 | 1011.7 |
| 20260906004422 | 30 | 326 | 0.0 | 1.6 | 0.00 | 0.00 | 0.00 | 68 | 1011.7 |
| 20260906003918 | 30 | 343 | 0.0 | 1.6 | 0.00 | 0.00 | 0.00 | 67 | 1011.6 |
| 20260906003413 | 31 | 335 | 0.0 | 1.6 | 0.00 | 0.00 | 0.00 | 67 | 1011.8 |
| 20260906002909 | 31 | 326 | 0.0 | 3.2 | 0.00 | 0.00 | 0.00 | 66 | 1011.6 |
| 20260906002408 | 31 | 0 | 0.0 | 3.2 | 0.00 | 0.00 | 0.00 | 66 | 1011.5 |
| 20260906001904 | 31 | 330 | 1.6 | 3.2 | 0.00 | 0.00 | 0.00 | 65 | 1011.7 |
| 20260906001359 | 31 | 323 | 1.6 | 3.2 | 0.00 | 0.00 | 0.00 | 64 | 1011.6 |
| 20260906000859 | 31 | 304 | 0.0 | 3.2 | 0.00 | 0.00 | 0.00 | 64 | 1011.7 |
| 20260906000400 | 32 | 345 | 1.6 | 1.6 | 0.00 | 0.00 | 0.00 | 63 | 1011.8 |
| 20260905235854 | 32 | 318 | 0.0 | 1.6 | 0.00 | 0.00 | 0.00 | 62 | 1011.7 |
| 20260905235349 | 32 | 312 | 0.0 | 3.2 | 0.00 | 0.00 | 0.00 | 62 | 1011.5 |
| 20260905234844 | 32 | 315 | 1.6 | 3.2 | 0.00 | 0.00 | 0.00 | 61 | 1011.7 |
| 20260905234339 | 32 | 309 | 1.6 | 3.2 | 0.00 | 0.00 | 0.00 | 60 | 1011.5 |
| 20260905233834 | 32 | 297 | 0.0 | 1.6 | 0.00 | 0.00 | 0.00 | 59 | 1011.5 |
| 20260905233329 | 32 | 343 | 1.6 | 3.2 | 0.00 | 0.00 | 0.00 | 59 | 1011.5 |
| 20260905232828 | 33 | 320 | 1.6 | 3.2 | 0.00 | 0.00 | 0.00 | 59 | 1011.7 |
| 20260905232325 | 33 | 333 | 0.0 | 3.2 | 0.00 | 0.00 | 0.00 | 58 | 1011.7 |
| 20260905231820 | 33 | 317 | 1.6 | 3.2 | 0.00 | 0.00 | 0.00 | 58 | 1011.5 |
| 20260905231315 | 33 | 322 | 0.0 | 3.2 | 0.00 | 0.00 | 0.00 | 56 | 1011.5 |
| 20260905230812 | 34 | 316 | 0.0 | 3.2 | 0.00 | 0.00 | 0.00 | 55 | 1011.5 |
| 20260905230309 | 34 | 305 | 3.2 | 3.2 | 0.00 | 0.00 | 0.00 | 54 | 1011.6 |
| 20260905225809 | 35 | 283 | 1.6 | 3.2 | 0.00 | 0.00 | 0.00 | 51 | 1011.6 |
| 20260905225306 | 36 | 308 | 3.2 | 3.2 | 0.00 | 0.00 | 0.00 | 49 | 1011.5 |
| 20260905224804 | 37 | 315 | 1.6 | 3.2 | 0.00 | 0.00 | 0.00 | 47 | 1011.6 |
| 20260905224259 | 37 | 308 | 1.6 | 3.2 | 0.00 | 0.00 | 0.00 | 46 | 1011.3 |
| 20260905223754 | 37 | 313 | 1.6 | 1.6 | 0.00 | 0.00 | 0.00 | 48 | 1011.3 |
| 20260905223252 | 36 | 326 | 1.6 | 3.2 | 0.00 | 0.00 | 0.00 | 49 | 1011.3 |
| 20260905222747 | 36 | 316 | 1.6 | 3.2 | 0.00 | 0.00 | 0.00 | 47 | 1011.2 |
| 20260905222246 | 36 | 316 | 3.2 | 3.2 | 0.00 | 0.00 | 0.00 | 48 | 1011.6 |
| 20260905221742 | 37 | 301 | 1.6 | 3.2 | 0.00 | 0.00 | 0.00 | 45 | 1011.2 |
| 20260905221239 | 36 | 316 | 3.2 | 3.2 | 0.00 | 0.00 | 0.00 | 45 | 1011.2 |
| 20260905220734 | 36 | 332 | 1.6 | 3.2 | 0.00 | 0.00 | 0.00 | 48 | 1011.0 |
| 20260905220230 | 36 | 327 | 0.0 | 4.8 | 0.00 | 0.00 | 0.00 | 50 | 1011.0 |
| 20260905215729 | 36 | 311 | 0.0 | 3.2 | 0.00 | 0.00 | 0.00 | 49 | 1011.3 |
| 20260905215226 | 36 | 301 | 1.6 | 3.2 | 0.00 | 0.00 | 0.00 | 47 | 1011.2 |
| 20260905214721 | 36 | 302 | 1.6 | 3.2 | 0.00 | 0.00 | 0.00 | 47 | 1011.3 |
| 20260905214216 | 36 | 304 | 1.6 | 3.2 | 0.00 | 0.00 | 0.00 | 47 | 1011.3 |
| 20260905213712 | 36 | 255 | 1.6 | 3.2 | 0.00 | 0.00 | 0.00 | 46 | 1011.3 |
| 20260905213208 | 36 | 319 | 1.6 | 3.2 | 0.00 | 0.00 | 0.00 | 48 | 1011.3 |
| 20260905212703 | 35 | 286 | 0.0 | 3.2 | 0.00 | 0.00 | 0.00 | 50 | 1011.5 |
| 20260905212202 | 34 | 309 | 0.0 | 1.6 | 0.00 | 0.00 | 0.00 | 54 | 1011.5 |
| 20260905211656 | 34 | 315 | 0.0 | 3.2 | 0.00 | 0.00 | 0.00 | 59 | 1011.6 |
| 20260905211152 | 35 | 327 | 0.0 | 3.2 | 0.00 | 0.00 | 0.00 | 57 | 1011.3 |
| 20260905210648 | 35 | 300 | 0.0 | 1.6 | 0.00 | 0.00 | 0.00 | 55 | 1011.3 |
| 20260905210143 | 35 | 328 | 1.6 | 1.6 | 0.00 | 0.00 | 0.00 | 54 | 1011.7 |
| 20260905205642 | 36 | 312 | 1.6 | 1.6 | 0.00 | 0.00 | 0.00 | 52 | 1011.6 |
| 20260905205141 | 35 | 324 | 1.6 | 3.2 | 0.00 | 0.00 | 0.00 | 49 | 1011.7 |
| 20260905204640 | 35 | 309 | 3.2 | 4.8 | 0.00 | 0.00 | 0.00 | 48 | 1011.6 |
| 20260905204136 | 35 | 321 | 0.0 | 3.2 | 0.00 | 0.00 | 0.00 | 50 | 1011.6 |
| 20260905203637 | 35 | 316 | 1.6 | 3.2 | 0.00 | 0.00 | 0.00 | 49 | 1011.5 |
| 20260905203132 | 36 | 309 | 1.6 | 3.2 | 0.00 | 0.00 | 0.00 | 48 | 1011.6 |
| 20260905202627 | 36 | 311 | 1.6 | 3.2 | 0.00 | 0.00 | 0.00 | 47 | 1011.6 |
| 20260905202123 | 36 | 333 | 1.6 | 3.2 | 0.00 | 0.00 | 0.00 | 46 | 1011.6 |
| 20260905201619 | 37 | 320 | 3.2 | 6.4 | 0.00 | 0.00 | 0.00 | 46 | 1011.6 |
| 20260905201118 | 37 | 325 | 3.2 | 6.4 | 0.00 | 0.00 | 0.00 | 44 | 1011.9 |
| 20260905200614 | 37 | 311 | 1.6 | 3.2 | 0.00 | 0.00 | 0.00 | 45 | 1011.7 |
| 20260905200109 | 37 | 277 | 1.6 | 4.8 | 0.00 | 0.00 | 0.00 | 47 | 1012.0 |
| 20260905195607 | 37 | 297 | 0.0 | 3.2 | 0.00 | 0.00 | 0.00 | 45 | 1011.8 |
| 20260905195103 | 37 | 330 | 3.2 | 3.2 | 0.00 | 0.00 | 0.00 | 44 | 1011.8 |
| 20260905194602 | 38 | 335 | 3.2 | 4.8 | 0.00 | 0.00 | 0.00 | 43 | 1011.9 |
| 20260905194102 | 37 | 312 | 3.2 | 8.0 | 0.00 | 0.00 | 0.00 | 43 | 1011.6 |
| 20260905193557 | 37 | 353 | 3.2 | 3.2 | 0.00 | 0.00 | 0.00 | 47 | 1012.1 |
| 20260905193052 | 38 | 296 | 3.2 | 6.4 | 0.00 | 0.00 | 0.00 | 44 | 1012.0 |
| 20260905192547 | 38 | 315 | 3.2 | 6.4 | 0.00 | 0.00 | 0.00 | 42 | 1012.0 |
| 20260905192044 | 38 | 272 | 3.2 | 4.8 | 0.00 | 0.00 | 0.00 | 39 | 1012.1 |
| 20260905191542 | 38 | 284 | 0.0 | 3.2 | 0.00 | 0.00 | 0.00 | 42 | 1012.0 |
| 20260905191042 | 38 | 315 | 0.0 | 3.2 | 0.00 | 0.00 | 0.00 | 41 | 1012.0 |
| 20260905190540 | 38 | 268 | 3.2 | 4.8 | 0.00 | 0.00 | 0.00 | 41 | 1012.2 |
| 20260905190039 | 38 | 290 | 3.2 | 6.4 | 0.00 | 0.00 | 0.00 | 43 | 1012.3 |
| 20260905185539 | 38 | 311 | 3.2 | 4.8 | 0.00 | 0.00 | 0.00 | 46 | 1012.1 |
| 20260905185038 | 38 | 300 | 1.6 | 4.8 | 0.00 | 0.00 | 0.00 | 40 | 1012.4 |
| 20260905184539 | 38 | 332 | 1.6 | 3.2 | 0.00 | 0.00 | 0.00 | 43 | 1012.5 |
| 20260905184038 | 37 | 307 | 3.2 | 3.2 | 0.00 | 0.00 | 0.00 | 46 | 1012.7 |
| 20260905183537 | 37 | 287 | 3.2 | 6.4 | 0.00 | 0.00 | 0.00 | 45 | 1012.8 |
| 20260905183033 | 37 | 317 | 3.2 | 4.8 | 0.00 | 0.00 | 0.00 | 48 | 1012.7 |
| 20260905182533 | 37 | 278 | 1.6 | 3.2 | 0.00 | 0.00 | 0.00 | 44 | 1012.6 |
| 20260905182032 | 37 | 309 | 3.2 | 4.8 | 0.00 | 0.00 | 0.00 | 44 | 1012.8 |
| 20260905181527 | 37 | 324 | 3.2 | 3.2 | 0.00 | 0.00 | 0.00 | 44 | 1012.7 |
| 20260905181026 | 37 | 305 | 3.2 | 3.2 | 0.00 | 0.00 | 0.00 | 43 | 1013.0 |
| 20260905180521 | 37 | 255 | 3.2 | 4.8 | 0.00 | 0.00 | 0.00 | 43 | 1012.7 |
| 20260905180017 | 37 | 349 | 3.2 | 6.4 | 0.00 | 0.00 | 0.00 | 44 | 1012.9 |
| 20260905175516 | 38 | 279 | 3.2 | 4.8 | 0.00 | 0.00 | 0.00 | 45 | 1012.9 |
| 20260905175012 | 38 | 320 | 6.4 | 6.4 | 0.00 | 0.00 | 0.00 | 43 | 1013.0 |
| 20260905174507 | 37 | 315 | 3.2 | 3.2 | 0.00 | 0.00 | 0.00 | 45 | 1013.0 |
| 20260905174003 | 37 | 318 | 3.2 | 4.8 | 0.00 | 0.00 | 0.00 | 44 | 1012.9 |
| 20260905173459 | 38 | 2 | 0.0 | 3.2 | 0.00 | 0.00 | 0.00 | 44 | 1013.0 |
| 20260905172954 | 38 | 294 | 3.2 | 4.8 | 0.00 | 0.00 | 0.00 | 43 | 1012.9 |
| 20260905172452 | 38 | 310 | 3.2 | 4.8 | 0.00 | 0.00 | 0.00 | 42 | 1012.9 |
| 20260905171948 | 38 | 310 | 3.2 | 4.8 | 0.00 | 0.00 | 0.00 | 46 | 1013.3 |
| 20260905171444 | 37 | 303 | 3.2 | 3.2 | 0.00 | 0.00 | 0.00 | 48 | 1013.2 |
| 20260905170940 | 38 | 330 | 3.2 | 3.2 | 0.00 | 0.00 | 0.00 | 44 | 1013.1 |
| 20260905170436 | 38 | 324 | 3.2 | 3.2 | 0.00 | 0.00 | 0.00 | 44 | 1013.2 |
| 20260905165936 | 38 | 292 | 3.2 | 4.8 | 0.00 | 0.00 | 0.00 | 50 | 1013.2 |
| 20260905165431 | 37 | 324 | 3.2 | 3.2 | 0.00 | 0.00 | 0.00 | 50 | 1013.4 |
| 20260905164926 | 36 | 310 | 3.2 | 4.8 | 0.00 | 0.00 | 0.00 | 48 | 1013.4 |
| 20260905164426 | 36 | 306 | 3.2 | 8.0 | 0.00 | 0.00 | 0.00 | 48 | 1013.3 |
| 20260905163921 | 37 | 278 | 3.2 | 3.2 | 0.00 | 0.00 | 0.00 | 46 | 1013.5 |
| 20260905163417 | 37 | 309 | 3.2 | 3.2 | 0.00 | 0.00 | 0.00 | 47 | 1013.4 |
| 20260905162913 | 37 | 305 | 1.6 | 3.2 | 0.00 | 0.00 | 0.00 | 46 | 1013.5 |
| 20260905162408 | 37 | 312 | 3.2 | 4.8 | 0.00 | 0.00 | 0.00 | 47 | 1013.4 |
| 20260905161903 | 36 | 319 | 3.2 | 3.2 | 0.00 | 0.00 | 0.00 | 50 | 1013.3 |
| 20260905161401 | 36 | 336 | 0.0 | 3.2 | 0.00 | 0.00 | 0.00 | 50 | 1013.5 |
| 20260905160900 | 35 | 309 | 1.6 | 6.4 | 0.00 | 0.00 | 0.00 | 53 | 1013.5 |
| 20260905160354 | 35 | 280 | 3.2 | 4.8 | 0.00 | 0.00 | 0.00 | 54 | 1013.5 |
| 20260905155849 | 35 | 268 | 3.2 | 4.8 | 0.00 | 0.00 | 0.00 | 51 | 1013.6 |
| 20260905155348 | 36 | 291 | 1.6 | 3.2 | 0.00 | 0.00 | 0.00 | 52 | 1013.5 |
| 20260905154848 | 35 | 289 | 1.6 | 3.2 | 0.00 | 0.00 | 0.00 | 53 | 1013.6 |
| 20260905154343 | 35 | 271 | 3.2 | 4.8 | 0.00 | 0.00 | 0.00 | 51 | 1013.7 |
| 20260905153838 | 35 | 320 | 1.6 | 3.2 | 0.00 | 0.00 | 0.00 | 51 | 1013.7 |
| 20260905153335 | 36 | 327 | 3.2 | 4.8 | 0.00 | 0.00 | 0.00 | 50 | 1013.8 |
| 20260905152835 | 36 | 285 | 1.6 | 3.2 | 0.00 | 0.00 | 0.00 | 54 | 1013.4 |
| 20260905152334 | 35 | 301 | 1.6 | 3.2 | 0.00 | 0.00 | 0.00 | 54 | 1013.6 |
| 20260905151829 | 36 | 92 | 1.6 | 3.2 | 0.00 | 0.00 | 0.00 | 51 | 1013.7 |
| 20260905151325 | 35 | 313 | 3.2 | 3.2 | 0.00 | 0.00 | 0.00 | 56 | 1013.8 |
| 20260905150824 | 34 | 292 | 3.2 | 3.2 | 0.00 | 0.00 | 0.00 | 56 | 1013.9 |
| 20260905150319 | 33 | 322 | 0.0 | 3.2 | 0.00 | 0.00 | 0.00 | 57 | 1013.6 |
| 20260905145817 | 33 | 311 | 3.2 | 3.2 | 0.00 | 0.00 | 0.00 | 56 | 1013.6 |
| 20260905145316 | 34 | 312 | 1.6 | 4.8 | 0.00 | 0.00 | 0.00 | 55 | 1013.7 |
| 20260905144815 | 34 | 308 | 1.6 | 3.2 | 0.00 | 0.00 | 0.00 | 57 | 1013.6 |
| 20260905144311 | 33 | 326 | 3.2 | 3.2 | 0.00 | 0.00 | 0.00 | 56 | 1013.7 |
| 20260905143810 | 33 | 323 | 3.2 | 3.2 | 0.00 | 0.00 | 0.00 | 58 | 1013.6 |
| 20260905143304 | 33 | 309 | 0.0 | 3.2 | 0.00 | 0.00 | 0.00 | 59 | 1013.6 |
| 20260905142803 | 33 | 311 | 3.2 | 4.8 | 0.00 | 0.00 | 0.00 | 60 | 1013.4 |
| 20260905142257 | 33 | 289 | 1.6 | 3.2 | 0.00 | 0.00 | 0.00 | 59 | 1013.5 |
| 20260905141754 | 32 | 287 | 1.6 | 3.2 | 0.00 | 0.00 | 0.00 | 60 | 1013.7 |
| 20260905141249 | 32 | 333 | 1.6 | 3.2 | 0.00 | 0.00 | 0.00 | 60 | 1013.6 |
| 20260905140744 | 32 | 331 | 1.6 | 3.2 | 0.00 | 0.00 | 0.00 | 61 | 1013.5 |
| 20260905140244 | 32 | 328 | 1.6 | 3.2 | 0.00 | 0.00 | 0.00 | 61 | 1013.6 |
| 20260905135743 | 31 | 337 | 1.6 | 3.2 | 0.00 | 0.00 | 0.00 | 63 | 1013.7 |
| 20260905135240 | 31 | 321 | 1.6 | 3.2 | 0.00 | 0.00 | 0.00 | 66 | 1013.6 |
| 20260905134739 | 30 | 15 | 0.0 | 3.2 | 0.00 | 0.00 | 0.00 | 67 | 1013.8 |
| 20260905134239 | 30 | 319 | 0.0 | 3.2 | 0.00 | 0.00 | 0.00 | 69 | 1013.5 |
| 20260905133733 | 29 | 337 | 1.6 | 1.6 | 0.00 | 0.00 | 0.00 | 76 | 1013.7 |
| 20260905133229 | 27 | 343 | 1.6 | 1.6 | 0.00 | 0.00 | 0.00 | 78 | 1013.8 |
| 20260905132727 | 27 | 6 | 0.0 | 0.0 | 0.00 | 0.00 | 0.00 | 85 | 1013.8 |
| 20260905132223 | 26 | 25 | 0.0 | 0.0 | 0.00 | 0.00 | 0.00 | 86 | 1013.7 |
| 20260905131718 | 26 | 338 | 1.6 | 1.6 | 0.00 | 0.00 | 0.00 | 87 | 1013.7 |
| 20260905131213 | 26 | 354 | 0.0 | 1.6 | 0.00 | 0.00 | 0.00 | 88 | 1013.8 |
| 20260905130708 | 26 | 25 | 0.0 | 1.6 | 0.00 | 0.00 | 0.00 | 89 | 1013.7 |
| 20260905130207 | 25 | 25 | 0.0 | 0.0 | 0.00 | 0.00 | 0.00 | 90 | 1013.8 |
| 20260905125702 | 25 | 336 | 0.0 | 1.6 | 0.00 | 0.00 | 0.00 | 89 | 1013.8 |
| 20260905125158 | 25 | 336 | 0.0 | 1.6 | 0.00 | 0.00 | 0.00 | 89 | 1013.5 |
| 20260905124654 | 25 | 32 | 0.0 | 1.6 | 0.00 | 0.00 | 0.00 | 89 | 1013.7 |
| 20260905124149 | 25 | 37 | 0.0 | 3.2 | 0.00 | 0.00 | 0.00 | 91 | 1013.4 |
| 20260905123644 | 24 | 322 | 1.6 | 3.2 | 0.00 | 0.00 | 0.00 | 91 | 1013.6 |
| 20260905123142 | 23 | 19 | 3.2 | 3.2 | 0.00 | 0.00 | 0.00 | 92 | 1013.2 |